Regional Weather Roundup
Issued by NWS

Home | Current Version | Previous Version | Text Only | Print | Product List | Glossary Off
Versions: 1 2 3 4 5 6 7 8 9 10 11 12 13 14 15 16 17 18 19 20 21 22 23 24 25 26 27 28 29 30 31 32 33 34 35 36 37 38 39 40 41 42 43 44 45 46 47 48 49 50

166
ASUS45 KTFX 010210
RWRMT
MONTANA REGIONAL WEATHER ROUNDUP
NATIONAL WEATHER SERVICE GREAT FALLS MT
800 PM MDT SAT APR 30 2016

NOTE: "FAIR" INDICATES FEW OR NO CLOUDS BELOW 12000 FEET WITH NO
SIGNIFICANT WEATHER AND/OR OBSTRUCTIONS TO VISIBILITY.

MTZ001>007-043-010300-
WEST OF THE DIVIDE

CITY           SKY/WX    TMP DP  RH WIND       PRES   REMARKS
KALISPELL      CLOUDY    59  31  34 E7        30.24R
MISSOULA       CLOUDY    51  43  74 CALM      30.25R
BUTTE          CLOUDY    44  30  57 NE13      30.25R
MULLAN PASS    MOCLDY    41  30  65 CALM      30.26S
ANACONDA         N/A     45  34  65 N10       30.25R
DEER LODGE       N/A     46  36  66 NE5       30.28R
EUREKA           N/A     61  34  36 NW7       30.24S
HAMILTON         N/A     48  39  71 N10       30.22S
LIBBY            N/A     63  36  36 NW3       30.23R
PLAINS           N/A     59  42  53 CALM      30.22R
$$

MTZ008-052>055-010300-
SOUTHWEST MONTANA

CITY           SKY/WX    TMP DP  RH WIND       PRES   REMARKS
BOZEMAN        CLOUDY    47  31  53 NE14      30.25R
DILLON         CLOUDY    45  32  60 NE21      30.19R
ENNIS          CLOUDY    43  32  65 N16       30.23R
THREE FORKS      N/A     49  23  36 N2        30.22R
TWIN BRIDGES     N/A     45  32  60 N16       30.16R
$$

MTZ009-010-012-014-046-048-049-054-010300-
EAST SLOPES AND CENTRAL MONTANA

CITY           SKY/WX    TMP DP  RH WIND       PRES   REMARKS
CUT BANK       CLOUDY    49  37  63 E5        30.31R
GREAT FALLS    CLOUDY    50  34  54 E9        30.29R
MALMSTROM AFB  CLOUDY    48  37  64 SE8       30.29R
HELENA         CLOUDY    50  37  61 N8        30.26R
CHOTEAU          N/A     48  39  71 N5        30.31R
CONRAD           N/A     50  41  71 N3        30.30R
$$

MTZ011-013-016-021-045-047-050-051-010300-
NORTH CENTRAL MONTANA

CITY           SKY/WX    TMP DP  RH WIND       PRES   REMARKS
HAVRE          CLEAR     54  36  50 E9        30.29R
LEWISTOWN      CLOUDY    50  33  52 NE3       30.30R
N BAR RANCH    CLOUDY    46  34  61 NE5       30.32R
CHINOOK          N/A     55  36  47 E3        30.30R
$$

MTZ017>020-022>027-061-062-010300-
NORTHEAST MONTANA

CITY           SKY/WX    TMP DP  RH WIND       PRES   REMARKS
GLASGOW        CLEAR     56  31  38 E7        30.28R
JORDAN           N/A     54  35  48 NE7       30.27R
SIDNEY         CLEAR     57  30  35 E6        30.28R
WOLF POINT     CLEAR     58  31  35 NE3       30.28R
PLENTYWOOD       N/A     55  27  33 NE6       30.29R
POPLAR           N/A     55  30  38 E5        30.28R
SCOBEY           N/A     57  26  30 E5        30.27R
$$

MTZ028>42-056>058-010300-
SOUTHCENTRAL AND SOUTHEAST MONTANA

CITY           SKY/WX    TMP DP  RH WIND       PRES   REMARKS
BAKER          CLEAR     50  33  52 NE7       30.26R
BILLINGS       CLOUDY    51  33  50 NE6       30.27R
LIVINGSTON     CLOUDY    44  34  67 E8        30.27R
MILES CITY     CLEAR     54  32  43 NE8       30.25R
EKALAKA          N/A     48  29  48 NE8       30.21R
FORSYTH          N/A     55  34  44 CALM      30.26R
LAUREL           N/A     50  30  46 CALM      30.23
ROUNDUP          N/A     51  33  50 CALM      30.17R
$$

REGIONAL REPORTS...DAKOTAS

CITY           SKY/WX    TMP DP  RH WIND       PRES   REMARKS
WILLISTON      CLEAR     56  30  37 E6        30.27R
MINOT          CLEAR     54  27  35 NE7       30.26R
DICKINSON      CLEAR     46  27  47 NE7       30.24R
BEACH            N/A     45  28  53 E9        30.30R
CROSBY           N/A     50  27  40 NE7       30.32R
TIOGA            N/A     50  27  40 E6        30.33R
WATFORD CITY     N/A     48  30  49 E6        30.28R
BISMARCK       CLEAR     53  29  39 NE10      30.23R
GRAND FORKS    PTCLDY    53  29  39 NE12      30.24R
FARGO          CLOUDY    55  27  34 NE16      30.17R
BUFFALO SD       N/A     47  30  51 NE10      30.16R
RAPID CITY     CLOUDY    44  31  60 NE12      30.16R
$$

REGIONAL REPORTS...WYOMING/IDAHO/WASHINGTON

CITY           SKY/WX    TMP DP  RH WIND       PRES   REMARKS
GILLETTE       CLOUDY    46  31  55 NE10      30.21R
SHERIDAN       CLOUDY    45  36  70 W6        30.25R
BUFFALO WY       N/A    N/A N/A N/A MISG      30.25R
CODY           CLOUDY    43  32  65 N14G21    30.23R
YELLOWSTONE LA   N/A     36  24  62 CALM      30.21R
IDAHO FALLS    CLOUDY    54  33  45 NW15      30.04R
SALMON         CLOUDY    48  37  66 CALM      30.17R
BOISE          CLEAR     62  35  36 NW17G25   30.02R
SPOKANE        MOCLDY    59  41  51 SE8       30.24R
$$

REGIONAL REPORTS...ALBERTA

CITY           SKY/WX    TMP DP  RH WIND       PRES   REMARKS
EDMONTON       MOCLDY    61  34  36 W5        30.21R
CALGARY        PTCLDY    54  28  37 S3        30.28S
LETHBRIDGE     MOCLDY    55  36  47 CALM      30.29R
MEDICINE HAT   CLOUDY    57  39  51 SW7       30.29S
$$

REGIONAL REPORTS...SASKATCHEWAN

CITY           SKY/WX    TMP DP  RH WIND       PRES   REMARKS
SWIFT CURRENT  PTCLDY    57  27  30 SE7       30.28R
REGINA         PTCLDY    55  23  28 E9        30.31R
SASKATOON      PTCLDY    61  27  27 S7        30.28F
$$




USA.gov is the U.S. government's official web portal to all federal, state and local government web resources and services.